Cloud_Cover
100 100 92 100 100 84 36 1 7 4 1 4 0 1 0 0 0 0 0 0 0 0 0 0 0 0 0 0 0 0 0 0 0 66 11 57 99 93 99 82 9 100 7 8 5 32 68
81 100 100 100 100 10 3 5 1 2 0 0 0 0 0 0 0 0 0 0 0 0 0 0 0 35 0 0 0 0 0 0 0 0 44 5 41 100 79 37 100 79 5 10 14 78 19
100 100 100 84 94 4 6 7 5 2 0 0 0 0 0 0 0 1 0 0 0 0 9 0 0 0 0 0 0 0 0 0 0 0 20 3 64 42 33 42 8 10 86 48 93 50 94
100 100 97 100 99 73 0 0 2 6 0 0 0 0 0 0 0 4 0 0 0 2 0 0 1 0 0 0 0 0 0 0 0 0 1 1 38 34 67 26 5 43 85 100 15 3 35
100 79 92 97 95 97 0 0 4 6 0 0 0 0 0 0 0 0 0 0 0 0 0 1 8 0 0 0 0 0 0 0 0 0 0 0 0 85 99 98 85 24 100 96 34 0 20
0 0 17 15 100 100 25 0 8 10 0 0 0 0 0 0 0 0 0 0 0 0 17 0 0 0 0 0 0 0 0 0 0 0 0 0 0 56 100 98 64 82 97 67 100 24 0
18 0 0 0 18 100 97 8 2 6 2 0 0 0 0 0 0 0 9 0 0 0 0 0 0 0 0 0 0 0 0 0 0 0 0 0 3 10 47 100 100 98 100 83 77 68 24
85 91 97 99 0 0 0 0 4 8 6 1 0 0 0 0 0 1 8 0 0 0 0 0 0 0 0 0 0 0 0 0 0 0 0 3 4 91 65 36 80 99 100 100 60 63 83
25 42 85 67 96 0 1 0 0 0 0 0 0 0 0 0 0 22 0 0 0 0 0 0 0 0 0 0 0 0 0 0 0 0 0 0 4 18 16 76 84 73 99 95 67 100 22
100 72 0 21 13 36 0 0 0 0 0 0 0 0 0 0 14 0 0 0 0 0 0 0 0 0 0 0 0 0 0 0 0 0 0 0 4 6 70 10 87 98 42 94 99 47 84
100 100 100 22 57 68 0 0 0 0 0 0 0 0 18 0 0 0 0 0 0 0 0 0 0 0 0 0 0 0 0 0 0 0 0 0 1 5 5 5 70 99 74 40 4 98 92
100 84 100 100 10 92 10 0 0 0 0 0 0 5 74 0 0 0 0 0 0 0 0 0 0 0 0 0 0 0 0 0 0 0 0 0 2 4 5 42 52 14 84 4 5 5 11
100 25 29 75 92 83 0 0 0 0 0 0 0 23 58 0 0 0 0 0 0 0 0 0 0 0 0 0 0 0 0 0 0 0 0 0 3 2 5 5 8 66 20 54 96 98 84
100 96 93 34 20 0 0 0 0 0 0 0 0 37 0 0 0 0 0 0 0 0 0 0 0 0 0 0 0 0 0 0 0 0 0 5 2 2 4 5 29 9 25 84 100 77 71
100 100 100 100 66 0 0 0 0 0 0 0 23 0 0 0 0 0 0 0 0 0 0 0 0 0 0 0 0 0 0 0 0 0 0 5 4 3 5 5 8 70 6 28 100 100 91
100 96 100 100 100 41 0 0 0 0 0 0 0 0 0 0 0 0 0 0 0 0 0 0 0 0 0 0 0 0 0 0 0 0 0 2 5 7 5 5 3 57 90 42 84 51 48
100 95 92 97 100 73 0 0 0 0 0 4 0 0 0 0 0 0 0 0 0 0 0 0 0 0 0 0 0 0 0 0 0 0 0 0 0 4 1 3 5 4 7 84 100 100 38
100 100 100 96 52 80 1 0 0 0 4 5 0 0 0 0 0 0 0 0 0 0 0 0 0 0 0 0 2 0 0 0 0 0 0 0 0 0 2 0 4 5 5 5 7 6 9
100 84 100 99 83 84 0 0 0 0 3 0 0 0 0 0 0 0 0 0 0 0 0 0 0 0 0 0 1 0 0 0 0 0 0 0 0 0 4 5 5 4 4 95 99 95 99
95 87 100 100 72 42 0 0 0 0 0 10 0 0 0 0 0 0 0 0 0 0 0 0 0 0 0 0 0 0 0 0 0 0 0 0 0 0 0 16 67 5 0 3 66 100 100
21 96 100 100 100 74 0 0 0 0 0 10 0 0 0 0 0 0 0 0 0 0 0 0 0 0 0 0 0 0 0 0 0 0 0 0 0 0 0 88 19 5 4 0 0 5 73
38 23 5 5 44 0 0 0 0 0 0 0 0 0 0 0 0 0 0 0 0 0 0 0 0 0 0 0 6 9 2 0 0 0 0 0 0 0 0 0 0 0 0 0 0 0 5
77 57 5 5 1 0 0 0 0 0 0 0 0 0 0 0 0 0 0 0 0 0 0 0 0 0 0 0 3 1 56 41 1 0 0 0 0 1 5 5 5 5 0 3 0 0 0
95 86 72 46 9 11 27 5 0 0 3 0 0 0 0 0 0 1 0 0 0 0 0 0 0 0 0 0 0 0 0 0 1 5 2 5 5 5 58 88 70 50 82 2 0 2 16
8 100 100 100 6 5 0 0 0 0 0 0 0 0 0 0 3 5 0 0 0 0 0 0 0 0 0 0 0 0 0 0 0 0 12 98 94 79 99 100 99 26 0 4 5 53 0
5 5 5 5 5 4 2 31 0 0 0 4 1 0 0 0 4 2 3 0 0 0 0 0 0 0 0 0 0 0 4 5 0 0 0 5 5 92 100 100 100 100 99 8 4 0 0
63 24 98 7 5 5 5 4 0 0 0 2 66 0 0 0 5 0 1 3 14 2 5 2 0 0 0 0 0 5 5 38 9 13 1 0 0 2 5 52 99 2 38 53 17 20 2
86 62 96 8 5 5 5 5 4 1 0 10 83 2 0 4 62 0 0 0 2 99 86 39 0 0 0 0 4 64 84 91 93 100 82 4 4 4 5 62 99 4 1 0 0 0 0
17 100 71 13 5 5 5 5 5 0 0 0 99 8 0 0 97 1 0 0 5 68 68 5 1 3 0 0 4 98 48 95 18 97 4 2 8 84 12 14 0 0 0 0 0 0 0